Location: Asheville, NC
(35.6000°N, 82.5500°W)
Time: 14:36:38
(UTC-04:00)

Vanguard 3 - Pass Details

Date: 14 December 2017
Orbit: 508 x 3264 km, 33.3° (Epoch: 20 April)

Event Time Altitude Azimuth Distance (km) Brightness Sun altitude
Rises 12:35:18 0° 245° (WSW) 3,484 10.7 31.1°
Reaches altitude 10° 12:38:22 10° 239° (WSW) 2,231 10.0 31.1°
Maximum altitude 12:42:55 43° 168° (SSE) 813 9.0 31.0°
Drops below altitude 10° 12:46:27 10° 95° (E) 1,727 8.9 30.9°
Sets 12:48:33 0° 88° (E) 2,594 9.7 30.9°
